Location: *
(52.0569°N, 54.5667°E)
Time: 22:27:33
(UTC+00:00)

Daily predictions for brighter satellites

Satellite Brightness Start Highest point End
(mag) Time Altitude Azimuth Time Altitude Azimuth Time Altitude Azimuth
Cosmos 2360 4.5 17:11:26 10° SW 17:17:08 79° WNW 17:22:52 10° NNE
CENTAUR R/B 3.9 17:11:14 10° WSW 17:17:29 48° NNW 17:24:48 10° NE
SL-16 R/B 2.7 17:13:28 10° S 17:18:38 38° ESE 17:23:50 10° NE
ATLAS 3B R/B 4.1 17:12:31 10° W 17:18:51 42° NNW 17:25:09 10° NE
Cosmos 1242 Rocket 2.9 17:16:40 10° S 17:20:11 47° E 17:23:44 10° NNE
Timation 1 Rocket 4.4 17:17:50 10° NNW 17:23:53 83° ENE 17:29:53 10° SE
Spot 2 Rocket 4.2 17:19:38 10° S 17:24:38 55° W 17:29:41 10° NNW
Cosmos 371 Rocket 4.3 17:20:44 10° NW 17:25:23 43° WSW 17:29:57 10° S
Okean 3 Rocket 3.7 17:21:29 10° S 17:26:03 88° E 17:30:37 10° N
Cosmos 1461 3.6 17:23:05 10° NW 17:26:51 42° WSW 17:30:37 10° SSE
SL-23 DEB 4.2 17:23:00 10° W 17:28:14 57° SSW 17:31:37 10° ESE
ATLAS 5 CENTAUR R/B 4.3 17:26:56 10° WNW 17:30:58 25° N 17:35:26 10° NE
Lacrosse 5 rocket 2.7 17:30:50 10° W 17:35:20 49° N 17:39:49 10° ENE
ATLAS CENTAUR R/B 4.1 17:31:37 10° NW 17:35:22 21° NNE 17:38:59 10° ENE
SL-8 R/B 3.8 17:32:11 10° WSW 17:36:52 57° S 17:41:33 10° ESE
Cosmos 1844 Rocket 3.4 17:34:19 10° NNW 17:39:48 46° NE 17:45:15 10° ESE
Cosmos 1743 Rocket 4.2 17:38:35 10° SSE 17:42:37 37° E 17:46:39 10° NNE
Cosmos 2263 Rocket 2.8 17:37:30 10° NW 17:43:04 54° WSW 17:48:36 10° S
Terra 2.1 17:39:02 10° SE 17:43:40 56° ENE 17:48:20 10° N
EO 1 Del DPAF 3.2 17:40:19 10° NNE 17:44:08 80° ESE 17:47:56 10° SSW
In-Cosmos 22 Rocket 4.1 17:39:37 10° S 17:45:00 80° E 17:50:35 10° NNE
USA 267 4.4 17:39:31 10° SSE 17:45:13 31° SW 17:50:57 10° WNW
USA 245 3.3 17:43:13 10° S 17:45:19 33° W 17:47:23 10° NNW
Cosmos 1408 3.5 17:44:07 10° SSE 17:47:26 33° E 17:50:50 10° NNE
Cosmos 1515 Rocket 3.5 17:43:45 10° N 17:48:10 77° ENE 17:52:30 10° SSE
Cosmos 1825 3.3 17:45:14 11° SSE 17:48:14 27° E 17:51:27 10° NNE
H-2A R/B 4.4 17:44:22 10° SW 17:48:27 21° W 17:52:32 10° NW
BREEZE-M DEB (TANK) 4.4 17:46:08 10° S 17:49:01 18° SE 17:52:44 10° E
BREEZE-M DEB (TANK) 1.9 17:50:22 10° SW 17:52:23 39° SSE 17:55:51 10° E
Cosmos 1766 Rocket 3.9 17:49:33 10° SSW 17:53:52 68° WNW 17:58:13 10° N
Cosmos 2151 3.2 17:50:26 10° SSW 17:54:42 74° WNW 17:59:02 10° N
Cosmos 304 Rocket 4.5 17:52:04 10° NNW 17:56:45 50° WSW 18:01:23 10° S
Cosmos 2228 Rocket 3.2 17:52:47 10° N 17:57:20 70° ENE 18:01:31 12° SSE
Cosmos 44 Rocket 3.9 17:54:05 10° S 17:58:47 38° ESE 18:03:25 10° NE
Cosmos 2084 3.6 17:55:14 10° SW 17:59:45 85° NW 18:04:10 10° NE
Resurs 01 Rocket 4.2 17:59:31 10° SW 18:02:10 15° W 18:04:49 10° NW
Cosmos 1408 Rocket 3.7 17:59:33 10° SSW 18:03:52 77° WNW 18:08:11 10° N
USA 81 4.3 17:58:58 10° N 18:04:12 59° E 18:08:48 13° SSE
Aureole 1 Rocket 3.9 18:00:24 10° SSW 18:05:17 78° WNW 18:11:52 10° NNE
COSMOS 2428 4.4 18:02:59 11° SE 18:05:47 16° E 18:09:04 10° ENE
Thor Agena Rocket 3.5 18:02:03 10° NNE 18:07:10 82° ESE 18:12:13 10° SSW
Cosmos 44 3.6 18:03:18 10° SW 18:08:33 77° NW 18:13:32 10° NE
Cosmos 1844 4.1 18:03:57 10° NNW 18:09:29 57° NE 18:14:28 13° SE
Cosmos 1892 3.1 18:07:31 10° SSW 18:11:21 65° WNW 18:15:12 10° N
Landsat 4 3.8 18:10:15 10° NNE 18:13:56 57° ESE 18:17:10 13° S
IGS 5A 4.3 18:10:25 10° S 18:14:27 47° W 18:18:30 10° NNW
SPOT 5 3.4 18:10:09 10° S 18:15:14 60° WSW 18:20:06 10° NNW
Helios 1A 4.0 18:13:23 14° SE 18:16:35 35° ENE 18:20:24 10° N
Cosmos 2251 Rocket 4.2 18:14:31 10° SW 18:19:42 58° WNW 18:24:53 10° NNE
Cosmos 1933 3.4 18:16:09 10° NNW 18:20:14 83° W 18:23:32 15° S
ASTEX 1 3.8 18:19:13 10° NNE 18:24:05 51° E 18:27:54 16° SSE
CARTOSAT-1 4.3 18:21:38 11° S 18:25:41 48° W 18:29:54 10° NNW
Cosmos 407 Rocket 3.9 18:21:15 12° S 18:25:48 46° ESE 18:30:54 10° NE
USA 229 DEB 4.2 18:21:48 10° S 18:27:44 36° ESE 18:33:54 10° NE
USA 229 4.2 18:21:56 10° S 18:27:50 36° ESE 18:33:59 10° NE
Nadezhda 4 Rocket 4.5 18:22:02 10° NNW 18:28:14 59° W 18:34:21 10° S
Cosmos 1190 Rocket 4.4 18:24:31 14° S 18:28:41 43° ESE 18:33:37 10° NE
Cosmos 2034 Rocket 4.3 18:24:09 10° SSW 18:30:21 68° WNW 18:36:39 10° N
Cosmos 1263 4.3 18:27:25 10° N 18:30:25 57° ENE 18:32:04 23° SSE
Cosmos 2360 Rocket 2.3 18:24:58 10° S 18:30:29 57° ESE 18:36:01 10° NE
Cosmos 921 Rocket 4.4 18:27:56 10° NW 18:31:42 31° WSW 18:35:26 10° SSW
Cosmos 1140 Rocket 4.2 18:29:32 17° SSE 18:32:56 35° ESE 18:37:37 10° NE
Cosmos 1633 Rocket 4.5 18:31:20 16° SE 18:33:37 23° E 18:37:03 10° NE
BREEZE-M DEB (TANK) 2.2 18:33:05 10° WSW 18:35:13 36° SSE 18:37:32 10° E
Cosmos 1980 Rocket 4.2 18:30:48 10° WSW 18:35:47 31° NW 18:40:46 10° NNE
Gbstr 26 Del rocket 2.7 18:32:47 10° WSW 18:36:32 54° SSE 18:40:12 10° E
Tiangong 2 3.4 18:35:29 10° SW 18:36:09 11° SSW 18:36:09 11° SSW
Meteor 1-26 Rocket 4.3 18:31:19 10° NNW 18:37:05 85° WSW 18:41:31 17° S
Cosmos 2279 Rocket 4.5 18:34:55 17° SSE 18:39:27 45° E 18:45:18 10° NNE
Meteor 2-3 Rocket 3.8 18:35:14 14° S 18:40:16 68° E 18:46:03 10° NNE
Cosmos 1092 Rocket 4.3 18:36:56 10° NNW 18:43:11 68° W 18:48:35 14° S
Mayak -0.5 18:41:56 10° NNE 18:45:56 39° E 18:48:14 21° SSE
Lacrosse 5 2.9 18:41:16 10° WNW 18:46:12 48° N 18:51:07 10° ENE
ERS-2 4.4 18:45:57 10° E 18:48:17 16° ENE 18:50:38 10° NNE
Cosmos 1606 3.0 18:46:28 10° NNW 18:50:13 58° W 18:52:42 19° S
USA 215 3.9 18:44:39 10° ENE 18:51:04 60° N 18:57:30 10° W
MOS 1 Rocket 3.2 18:47:55 10° NNE 18:52:18 80° WNW 18:56:22 13° SSW
Cosmos 1818 3.6 18:47:11 10° NW 18:52:43 84° NE 18:56:51 18° SE
ISS -2.9 18:53:04 27° SSE 18:53:04 27° SSE 18:55:57 10° E
Cosmos 614 Rocket 3.9 18:48:56 14° S 18:53:10 65° ESE 18:58:13 10° NNE
Cosmos 1500 Rocket 4.3 18:49:55 10° SSW 18:54:17 54° WNW 18:58:42 10° N
CZ-2C R/B 4.2 18:51:23 10° N 18:56:07 34° WNW 19:00:46 10° SW
Cosmos 2333 Rocket 3.0 18:53:31 20° SSE 18:56:38 33° ESE 19:01:40 10° NE
Sich 1 3.2 18:54:51 22° SSE 18:57:26 56° E 19:01:38 10° NNE
Cosmos 2322 Rocket 3.0 18:53:19 10° SW 18:58:55 55° NW 19:04:33 10° NNE
Cosmos 2278 Rocket 2.8 18:56:12 10° NNW 19:01:46 52° NE 19:06:26 14° SE
SL-16 R/B 3.2 18:57:11 10° SW 19:02:41 48° NW 19:08:11 10° NNE
Cosmos 2219 Rocket 2.9 18:59:46 20° SSE 19:02:59 37° ESE 19:08:10 10° NE
ARGOS Delta rocket 4.0 19:00:17 21° SE 19:03:00 54° ENE 19:07:26 10° N
SeaSat 1 3.3 19:02:36 10° NE 19:07:04 33° ESE 19:09:19 22° SSE
Cosmos 1655 Rocket 4.1 19:00:46 10° N 19:07:05 76° ENE 19:11:27 21° SSE
Cosmos 1634 Rocket 4.1 19:02:26 13° SSW 19:08:10 78° WNW 19:14:27 10° N
Helios 1B rocket 3.4 19:06:49 10° NNE 19:10:36 33° E 19:12:19 23° SE
Cosmos 2322 3.7 19:06:25 13° SSW 19:11:27 72° ESE 19:17:07 10° NNE
Cosmos 1607 4.0 19:08:01 10° NW 19:14:08 67° SW 19:18:14 22° SSE
SL-19 R/B 4.3 19:11:04 10° N 19:14:37 60° WNW 19:16:44 19° SW
Lacrosse 5 rocket 2.5 19:10:40 10° WNW 19:15:11 50° NNE 19:19:36 10° E
ATLAS CENTAUR R/B 2.6 19:10:47 10° NW 19:15:29 45° NE 19:19:50 10° ESE
ATLAS 5 CENTAUR R/B 4.0 19:12:33 10° NW 19:17:08 29° NNE 19:22:17 10° ENE
Meteor 1-10 Rocket 4.2 19:11:35 10° NNW 19:17:13 81° ENE 19:20:55 23° SSE
Cosmos 2084 Rocket 3.5 19:13:21 10° NW 19:17:42 63° SW 19:19:58 26° SSE
SL-8 R/B 4.2 19:14:34 10° W 19:19:01 39° SSW 19:21:16 24° SSE
Cosmos 2026 Rocket 4.5 19:14:29 10° NNW 19:20:20 52° W 19:25:01 16° SSW
Cosmos 1707 Rocket 3.9 19:16:52 10° NNW 19:21:14 61° W 19:23:53 23° S
Terra 3.6 19:17:58 10° SW 19:21:45 23° W 19:25:34 10° NW
Spot 4 4.1 19:20:26 23° S 19:23:24 62° WSW 19:28:10 10° NNW
Cosmos 1844 Rocket 3.5 19:18:24 10° NW 19:23:41 41° WSW 19:27:10 20° SSW
Cosmos 1825 3.9 19:20:22 10° SW 19:23:42 29° WNW 19:27:03 10° N
Cosmos 1782 3.5 19:25:49 10° NNW 19:29:42 46° W 19:31:53 23° SSW
Nimbus 7 Rocket 4.4 19:24:34 10° NNE 19:30:32 86° ESE 19:35:01 19° SSW
JB-3 4.5 19:26:52 10° NNE 19:31:04 69° ESE 19:33:10 28° S
Cosmos 2180 Rocket 4.4 19:31:10 21° S 19:35:32 87° E 19:41:43 10° N
SL-4 R/B 3.0 19:33:49 25° S 19:35:37 33° SSE 19:39:48 10° E
Cosmos 2242 Rocket 3.8 19:31:27 10° N 19:35:58 65° ENE 19:38:24 27° SSE
YAOGAN 11 4.1 19:33:58 28° S 19:36:12 72° WSW 19:40:32 10° NNW
Cosmos 1862 3.4 19:36:50 30° S 19:38:39 65° E 19:42:38 10° NNE
Cosmos 676 Rocket 4.0 19:34:41 18° SSW 19:38:41 88° WNW 19:43:59 10° NNE
Cosmos 1400 Rocket 3.3 19:35:05 10° N 19:39:10 53° ENE 19:41:15 26° SE
Cosmos 44 Rocket 4.2 19:35:16 10° WSW 19:40:16 51° NW 19:45:09 10° NE
Cosmos 1633 2.7 19:39:50 35° SSE 19:41:04 56° E 19:44:35 10° NNE
NOSS 3-1 (C) 3.3 19:36:49 12° SSW 19:42:05 74° SE 19:48:43 10° NE
Cosmos 1741 Rocket 4.4 19:42:55 26° SSE 19:45:28 46° ESE 19:50:27 10° NE
Meteor 2-6 Rocket 4.5 19:41:13 10° NNW 19:46:31 57° W 19:49:50 23° SSW
COSMOS 2428 2.7 19:44:56 19° SSW 19:49:08 79° ESE 19:54:54 10° NNE
Helios 1A 4.3 19:50:01 19° SW 19:52:11 30° W 19:55:54 10° NNW
Cosmos 1703 Rocket 4.1 19:49:01 10° N 19:53:23 52° ENE 19:55:45 25° SE
SL-16 R/B 4.0 19:52:14 14° SE 19:54:32 17° E 19:58:06 10° ENE
ALOS 2 2.7 19:53:07 29° S 19:55:17 66° WSW 19:59:40 10° NNW
Cosmos 1954 Rocket 4.2 19:51:26 16° SW 19:55:35 72° WNW 20:00:54 10° NNE
Cosmos 1850 Rocket 4.2 19:55:20 26° S 19:58:13 60° ESE 20:03:31 10° NNE
GP-B 3.1 19:55:52 10° N 20:00:20 77° W 20:02:36 29° SSW
Cosmos 1812 2.6 19:56:59 10° N 20:00:52 87° E 20:02:26 35° SSE
Cosmos 1980 4.1 20:02:28 26° S 20:05:24 49° ESE 20:10:52 10° NE
BREEZE-M DEB (TANK) 4.5 19:52:54 10° WSW 20:06:43 53° S 20:11:04 10° ESE
Cosmos 1933 Rocket 3.5 20:05:56 31° S 20:08:03 80° E 20:12:29 10° NNE
Meteor 1-27 Rocket 4.0 20:03:55 10° NNW 20:09:44 67° W 20:13:13 25° S
Cosmos 2266 Rocket 4.2 20:03:34 10° NNW 20:09:55 64° W 20:13:52 24° SSW
Cosmos 1633 Rocket 3.9 20:08:25 19° SW 20:11:09 44° WNW 20:15:21 10° N
Cosmos 2237 Rocket 2.5 20:10:40 27° S 20:13:35 53° ESE 20:19:03 10° NE
Cosmos 1140 Rocket 4.5 20:09:43 10° SW 20:14:38 43° WNW 20:19:38 10° NNE
Cosmos 2360 Rocket 3.7 20:09:39 10° WSW 20:14:48 35° NW 20:19:57 10° NNE
CZ-4C R/B 4.4 20:13:56 20° SE 20:16:37 44° ENE 20:20:52 10° N
SL-16 R/B 4.4 20:12:04 10° ESE 20:16:54 25° NE 20:21:45 10° N
Cosmos 1862 Rocket 4.4 20:13:43 10° NNW 20:17:45 38° W 20:19:45 24° SW
USA 229 DEB 4.0 20:11:38 10° WSW 20:18:17 70° NW 20:25:19 10° NE
USA 229 3.9 20:11:44 10° WSW 20:18:23 71° NW 20:25:26 10° NE
NOSS 3-1 (A) 3.4 20:16:27 16° SW 20:21:13 84° SE 20:27:58 10° NE
Mayak 0.5 20:17:46 10° N 20:21:24 28° WNW 20:24:50 11° WSW
ERS-2 2.3 20:20:13 36° SSW 20:21:30 60° WSW 20:25:09 10° NNW
Gbstr 26 Del rocket 2.5 20:19:27 10° W 20:23:11 88° S 20:27:07 10° E
H-2A R/B 4.5 20:20:44 10° ESE 20:23:55 19° ENE 20:27:07 10° NNE
Okean 1-7 3.0 20:19:37 10° N 20:23:56 82° E 20:25:57 31° SSE
Nadezhda 2 Rocket 4.5 20:17:57 10° N 20:24:17 89° E 20:28:08 25° S
Cosmos 1470 Rocket 4.0 20:23:04 25° SW 20:25:25 56° WNW 20:29:46 10° N
Cosmos 540 Rocket 3.6 20:23:55 10° NNW 20:29:04 73° ENE 20:32:28 21° SE
ISS -3.9 20:26:07 10° WSW 20:29:28 73° SSE 20:32:47 10° E
Lacrosse 5 2.0 20:24:32 10° WNW 20:29:39 79° NNE 20:34:44 10° ESE
SL-19 R/B 4.4 20:27:46 26° S 20:30:57 66° WSW 20:36:47 10° NNW
Cosmos 1869 Rocket 4.0 20:29:41 29° SSE 20:31:41 53° E 20:35:59 10° NNE
NOSS 2-3 (E) 3.8 20:30:34 27° SSW 20:33:01 66° SE 20:38:27 10° NE
USA 215 3.7 20:27:17 10° E 20:33:45 65° NNE 20:40:14 10° WNW
Cosmos 841 Rocket 3.4 20:28:50 10° NNW 20:34:01 83° WSW 20:36:59 26° SSE
NOSS 2-3 (D) 3.8 20:33:15 28° SSW 20:35:38 65° SE 20:41:03 10° NE
Cosmos 2297 3.7 20:30:08 10° NNW 20:35:49 82° ENE 20:40:00 19° SE
Okean 1 3.9 20:33:15 10° N 20:37:14 51° ENE 20:39:20 25° SE
DELTA 2 DEB (DPAF) 4.1 20:35:17 28° SSE 20:37:36 86° ENE 20:42:07 10° NNW
BREEZE M DEB (TANK) 4.3 20:37:31 21° SSE 20:39:05 24° ESE 20:47:03 10° ENE
Cosmos 2333 Rocket 2.8 20:35:28 12° SW 20:40:42 55° NW 20:46:18 10° NNE
Cosmos 2208 Rocket 4.4 20:35:49 10° NNW 20:41:07 53° WSW 20:43:51 27° S
Cosmos 192 4.3 20:37:00 10° NNW 20:41:58 80° WSW 20:44:43 27° SSE
Meteor 2-19 Rocket 4.5 20:36:03 10° N 20:42:15 86° E 20:46:14 24° SSE
SL-19 R/B 4.3 20:36:27 10° NNE 20:42:17 74° ESE 20:45:30 26° S
Meteor 1-29 4.2 20:40:50 10° N 20:44:00 34° WNW 20:45:41 21° WSW
Cosmos 1763 Rocket 4.0 20:39:18 10° NW 20:44:11 45° WSW 20:46:37 27° SSW
SeaSat 1 3.2 20:39:58 10° NNE 20:44:45 51° NW 20:49:06 12° WSW
SL-24 R/B - RUBIN 2 4.3 20:39:44 10° NW 20:45:20 63° SW 20:49:30 21° SSE
Cosmos 2278 Rocket 3.1 20:40:36 10° NW 20:45:41 35° WSW 20:48:14 24° SSW
Helios 1B rocket 3.9 20:42:10 10° N 20:45:50 31° WNW 20:48:39 15° WSW
Cosmos 2219 Rocket 3.0 20:41:27 10° SW 20:46:51 49° NW 20:52:22 10° NNE
Cosmos 1745 Rocket 4.2 20:43:47 10° N 20:50:08 67° ENE 20:54:42 19° SSE
Lacrosse 4 Rocket 2.6 20:51:42 24° SSE 20:53:18 31° ESE 20:57:14 10° NE
ATLAS CENTAUR R/B 2.2 20:50:01 10° NW 20:54:28 40° WSW 20:56:00 30° SSW
Lacrosse 5 rocket 1.4 20:50:05 10° WNW 20:54:40 75° SSW 20:58:57 11° SE
Cosmos 1437 2.6 21:00:17 45° SSW 21:01:04 75° WNW 21:04:10 10° N
COSMOS 2455 3.1 20:58:00 25° S 21:01:26 58° ESE 21:07:22 10° NE
Cosmos 1867 3.6 20:57:49 19° SW 21:01:50 84° NW 21:07:23 10° NE
CENTAUR R/B 4.1 20:55:08 10° NW 21:02:20 48° NNE 21:10:23 10° E
Cosmos 1943 Rocket 3.1 20:57:11 10° NNW 21:02:31 46° NE 21:07:49 10° SE
ATLAS 5 CENTAUR R/B 2.6 20:57:10 10° NW 21:02:40 68° NE 21:09:00 10° ESE
ATLAS 3B R/B 3.8 20:57:05 10° NW 21:03:26 44° NNE 21:09:49 10° E
SL-08 R/B 4.5 20:57:29 10° NNW 21:03:40 81° W 21:07:41 23° S
Cosmos 1674 Rocket 4.4 21:02:54 10° N 21:07:15 46° ENE 21:10:30 17° SE
USA 238 DEB 4.0 21:00:57 10° NW 21:08:05 75° NE 21:15:26 10° SE
USA 238 4.0 21:01:03 10° NW 21:08:11 74° NE 21:15:31 10° SE
Cosmos 1315 Rocket 3.4 21:04:44 10° NNW 21:08:29 43° W 21:09:56 29° SW
PSLV R/B 3.5 21:06:38 10° NNE 21:10:58 82° ESE 21:13:05 29° S
ATLAS 2AS CENTAUR R/B 4.5 21:09:09 13° SSE 21:14:15 24° ESE 21:20:17 10° ENE
Cosmos 1733 Rocket 3.7 21:11:55 23° SSE 21:14:22 47° E 21:18:37 10° NNE
Cosmos 2369 Rocket 3.0 21:09:02 10° NNW 21:14:40 53° NE 21:20:14 10° SE
SL-4 R/B 2.2 21:10:17 10° WSW 21:15:02 74° SSE 21:19:34 10° E
NOSS 2-3 (C) 4.2 21:14:35 16° WSW 21:18:21 70° NW 21:24:04 10° NE
Cosmos 1386 Rocket 4.4 21:15:45 10° N 21:21:52 87° WSW 21:26:06 21° S
CZ-4B R/B 3.5 21:19:00 10° NNE 21:24:07 72° ESE 21:27:05 24° S
Cosmos 1378 Rocket 4.3 21:21:34 10° N 21:25:47 49° ENE 21:29:09 15° SSE
Cosmos 2221 Rocket 4.1 21:25:06 10° NNW 21:29:27 46° W 21:31:40 25° SSW
Meteor 2-4 Rocket 3.8 21:26:47 10° NNW 21:32:40 83° ENE 21:37:10 17° SSE
USA 32 4.3 21:27:25 10° N 21:32:41 69° E 21:36:42 17° SSE
COSMOS 2428 4.5 21:29:08 10° W 21:34:02 28° NW 21:38:57 10° NNE
Resurs 1-4 Rocket 3.3 21:29:25 10° NNE 21:34:16 34° E 21:38:20 14° SSE
Cosmos 2285 Rocket 4.2 21:30:37 20° SW 21:35:12 70° WNW 21:41:32 10° NNE
SL-16 R/B 2.2 21:34:06 22° SSW 21:37:50 86° ESE 21:43:33 10° NNE
Meteor 1-19 Rocket 4.3 21:35:34 10° NNW 21:40:58 60° W 21:44:29 22° S
CZ-2D R/B 3.0 21:41:18 10° NNE 21:46:26 42° E 21:50:45 14° SSE
ADEOS II 4.4 21:45:09 10° NE 21:48:28 17° E 21:51:47 10° SE
Iridium 2 4.2 21:50:51 24° SW 21:52:45 46° W 21:56:28 10° N
Meteor 1-11 Rocket 4.1 21:49:10 17° S 21:53:25 58° E 21:59:00 10° NNE
NOSS 3-2 (C) 4.1 21:46:45 10° NW 21:54:03 79° NE 22:02:17 10° SE
Cosmos 2237 Rocket 3.4 21:52:41 10° WSW 21:57:53 37° NW 22:03:06 10° NNE
Cosmos 1486 Rocket 4.1 21:54:15 21° SSW 21:57:54 80° WNW 22:03:14 10° NNE
H-2A R/B 2.1 21:56:10 19° S 21:59:26 73° WSW 22:03:59 10° NNW
Cosmos 1943 4.4 21:55:17 13° SSE 21:59:31 33° ESE 22:04:32 10° NE
SL-16 R/B 2.5 21:54:00 12° SSE 21:59:53 85° WSW 22:06:09 10° NNW
SL-08 R/B 4.0 21:59:58 10° SE 22:04:28 52° ENE 22:09:06 10° N
ISS -3.9 22:02:47 10° W 22:06:07 78° S 22:09:26 10° ESE
Cosmos 1503 Rocket 4.1 22:04:50 20° SSW 22:08:35 76° ESE 22:13:55 10° NNE
Gbstr 26 Del rocket 2.8 22:06:09 10° W 22:09:51 52° SSW 22:13:59 10° SE
UNK 3.7 22:06:19 16° S 22:09:58 74° WSW 22:14:35 10° NNW
Cosmos 1500 3.3 22:08:20 20° S 22:10:50 74° E 22:14:39 10° NNE
Cosmos 2074 Rocket 4.5 22:05:01 10° N 22:11:15 62° ENE 22:17:28 10° SSE
Lacrosse 5 2.5 22:07:47 10° WNW 22:12:20 34° SW 22:16:52 10° SSE
USA 215 3.2 22:10:14 10° SE 22:16:46 73° SSW 22:23:20 10° WNW
Cosmos 220 Rocket 4.0 22:14:23 10° NNW 22:18:52 89° ENE 22:23:17 10° SSE
MOZ.5/SAFIR/RUBIN 5/SL-8 3.9 22:16:23 16° S 22:20:08 62° WSW 22:24:51 10° NNW
SAR-Lupe-4 4.5 22:19:12 21° SSW 22:20:56 33° W 22:24:14 10° NNW
Cosmos 1709 Rocket 4.2 22:15:04 10° NNW 22:21:08 55° W 22:26:06 15° SSW
Cosmos 1354 Rocket 4.0 22:21:59 17° SSW 22:26:02 87° WNW 22:31:24 10° NNE
Cosmos 1536 2.8 22:24:04 18° S 22:26:59 86° WNW 22:31:02 10° N
NPP 3.7 22:21:44 10° NNE 22:27:10 84° ESE 22:31:46 15° SSW
Okean 2 4.4 22:26:47 10° N 22:30:51 47° ENE 22:34:54 10° SSE
Lacrosse 4 Rocket 2.3 22:28:00 13° WSW 22:31:52 46° NW 22:36:11 10° NNE
IRS-1D 3.8 22:27:31 10° NNE 22:32:27 61° ESE 22:37:04 11° S
Lacrosse 5 rocket 2.9 22:30:08 10° W 22:33:15 19° SW 22:34:28 17° SSW
EXPRESS MD2 3.0 22:33:21 24° SSW 22:34:20 35° SSE 22:37:16 10° E
Cosmos 968 Rocket 3.5 22:31:01 16° SSW 22:35:09 76° WNW 22:40:21 10° NNE
Cosmos 1656 Rocket 3.8 22:29:29 10° NNW 22:35:14 82° ENE 22:40:56 10° SSE
Cosmos 2098 Rocket 3.7 22:32:23 10° NNW 22:35:18 25° W 22:36:49 17° SW
NOSS 3-2 (A) 4.1 22:28:26 10° NW 22:35:40 58° SW 22:43:43 10° SSE
Cosmos 1689 Rocket 4.2 22:33:55 10° SE 22:36:31 28° ENE 22:39:08 10° N
Cosmos 1975 Rocket 3.0 22:36:07 10° NNW 22:40:28 75° W 22:44:46 10° S
OPS 8737 4.4 22:38:09 17° SW 22:40:57 73° SE 22:44:04 10° NE
Cosmos 1743 4.1 22:38:12 10° SSE 22:41:46 35° E 22:45:20 10° NNE
Cosmos 2315 Rocket 4.3 22:37:46 14° SSW 22:43:07 59° WNW 22:49:27 10° N
Cosmos 1346 Rocket 4.0 22:41:41 10° SSE 22:45:28 38° E 22:49:14 10° NNE
Cosmos 1943 Rocket 2.7 22:41:09 10° NW 22:46:12 38° WSW 22:51:15 10° S
ATLAS 5 CENTAUR R/B 3.0 22:42:01 10° WNW 22:47:14 35° WSW 22:53:03 10° S
COSMOS 2455 3.8 22:41:57 10° WSW 22:47:39 42° NW 22:53:23 10° NNE
Meteor 1-23 Rocket 4.5 22:44:33 10° NNW 22:50:14 56° W 22:55:56 10° S
Cosmos 1025 Rocket 4.5 22:46:34 10° N 22:50:42 39° ENE 22:54:50 10° SE
Unknown 4.4 22:48:53 15° SSW 22:51:02 27° SE 22:53:59 10° E
Cosmos 2154 Rocket 4.3 22:45:30 10° N 22:51:54 73° ENE 22:58:15 10° SSE
CENTAUR R/B 3.1 22:45:57 10° NW 22:53:46 80° SW 23:02:23 10° SE
CZ-4C R/B 3.5 22:51:26 13° SSW 22:54:15 41° W 22:57:39 10° NNW
deb Chang Zheng 4 3.5 22:50:08 10° NNE 22:54:27 79° WNW 22:58:22 12° SSW
ATLAS 3B R/B 2.6 22:47:55 10° NW 22:54:31 70° SW 23:01:14 10° SSE
SL-4 R/B 2.2 22:50:07 10° W 22:54:48 83° S 22:59:09 10° E
NOSS 2-2 (E) 3.4 22:52:27 14° SW 22:55:37 72° SE 23:00:08 10° NE
Cosmos 2369 Rocket 2.9 22:53:24 10° NW 22:58:30 34° WSW 23:03:34 10° S
USA 238 DEB 4.4 22:52:17 10° NW 22:58:41 36° WSW 23:05:14 10° S
USA 238 4.4 22:52:22 10° NW 22:58:47 36° WSW 23:05:21 10° S
CZ-4B R/B 1.1 22:59:42 10° SSE 23:02:53 82° WSW 23:06:01 10° NNW
Okean 2 Rocket 3.3 22:59:35 10° S 23:04:02 71° E 23:08:29 10° NNE
ATLAS 2AS CENTAUR R/B 3.2 22:56:34 12° SSW 23:04:14 77° SE 23:12:17 10° NE
GEOS 3 Rocket 4.4 23:00:55 10° NE 23:05:47 41° SE 23:10:39 10° SSW
Cosmos 1975 3.5 23:03:51 10° S 23:07:50 53° E 23:11:51 10° NNE
Cosmos 1603 3.9 23:02:47 11° SW 23:08:11 67° NW 23:13:50 10° NNE
Cosmos 1378 4.1 23:06:13 10° N 23:09:51 49° ENE 23:13:28 10° SSE
IRS-P3 4.2 23:04:38 10° NNE 23:09:59 71° WNW 23:15:18 10° SSW
NOSS 2-2 (D) 3.4 23:07:24 12° SW 23:10:53 80° SE 23:15:22 10° NE
Cosmos 1666 2.9 23:10:13 11° SSW 23:13:52 57° WNW 23:17:41 10° N
Resurs 1-4 Rocket 2.7 23:09:11 10° N 23:14:14 44° WNW 23:19:14 10° SW
Landsat 5 4.2 23:12:58 10° SSW 23:17:10 38° W 23:21:18 10° NNW
SJ 16-02 4.2 23:17:50 10° ESE 23:19:13 11° E 23:20:38 10° ENE
Cosmos 2184 Rocket 4.3 23:13:15 10° NNW 23:19:21 51° W 23:25:22 10° SSW
SL-16 R/B 3.8 23:17:59 10° W 23:22:41 26° NW 23:27:25 10° NNE
Unknown 4.3 23:22:14 10° SW 23:25:41 36° SSE 23:29:10 10° E
CZ-2D R/B 3.0 23:21:31 10° N 23:26:28 38° WNW 23:31:27 10° SW
Cosmos 1536 Rocket 3.6 23:23:54 10° NNW 23:28:23 78° W 23:32:50 10° S
ADEOS II 2.2 23:23:36 10° NNE 23:28:55 88° WNW 23:34:11 10° SSW
NOSS 8 (H) 4.2 23:30:15 10° SW 23:33:22 88° SE 23:36:42 10° NE
ARIANE 5 R/B 2.6 23:30:05 10° NNE 23:35:09 70° WNW 23:40:15 10° SSW
Unknown 3.6 23:32:02 10° SW 23:35:22 48° SSE 23:38:43 10° ENE
IDEFIX/ARIANE 42P 4.4 23:32:33 10° NNE 23:37:03 29° E 23:41:32 10° SSE
